Flag Weather past 2 weeks in Kuwait City, Kuwait

Now
88 °F

Broken clouds.


Feels Like: 86 °F
Forecast: 77 / 90 °F
Wind: 5 mph from East

Location: Kuwait International Airport

Current Time: Oct 30, 2014 at 3:20:59 PM

Latest Report: Oct 30, 2014 at 2:00 PM


Visibility: 5 mi

Pressure: 29.83 "Hg

Humidity: 31%

Dew point: 54 °F

Location of Kuwait CityLocation

Historic Weather in Kuwait City — Graph

°F

Kuwait City temperature yesterday

Maximum temperature yesterday: 88 °F (at 2:00 PM)
Minimum temperature yesterday: 73 °F (at 12:00 AM)
Average temperature yesterday: 81 °F

Past Weeks' High & Low Weather Summary

 TemperatureHumidityPressure
High102 °F (Oct 20, 11:00 AM)74% (Oct 30, 6:00 AM)30.12 "Hg (Oct 30, 6:00 AM)
Low59 °F (Oct 23, 6:00 AM)10% (Oct 20, 1:00 PM)29.71 "Hg (Oct 20, 1:00 PM)
Average81 °F37%29.94 "Hg
* Reported Oct 15 2:00 PM — Oct 30 2:00 PM, Kuwait City, Weather by CustomWeather, © 2014

Note: Actual official high and low records may vary slightly from our data, if they occured in-between our weather recording intervals... More about our weather records

Advertising

Kuwait City weather history for previous 24 hours

 ConditionsComfort  
Time TempWeatherWind HumidityBarometerVisibility
2:00 PM
Oct 30
88 °FBroken clouds.5 mph31%29.83 "Hg5 mi
1:00 PM88 °FBroken clouds.3 mph31%29.89 "HgN/A
12:00 PM86 °FBroken clouds.7 mph38%29.89 "HgN/A
11:00 AM86 °FBroken clouds.8 mph38%29.89 "HgN/A
10:00 AM77 °FPartly sunny.3 mph61%29.95 "HgN/A
9:00 AM82 °FLight rain. Partly sunny.13 mph55%29.95 "Hg5 mi
8:00 AM81 °FBroken clouds.No wind66%29.92 "Hg5 mi
7:00 AM77 °FRain. Broken clouds.5 mph74%29.89 "HgN/A
6:00 AM77 °FRain. Sunny.7 mph74%29.92 "HgN/A
5:00 AM77 °FPartly cloudy.9 mph69%29.89 "HgN/A
4:00 AM79 °FPartly cloudy.6 mph65%29.89 "HgN/A
3:00 AM81 °FRain. Partly cloudy.7 mph62%29.86 "HgN/A
2:00 AM81 °FPassing clouds.3 mph62%29.86 "HgN/A
1:00 AM81 °FPartly cloudy.7 mph58%29.89 "HgN/A
12:00 AM79 °FPartly cloudy.5 mph61%29.89 "HgN/A
11:00 PM
Oct 29
77 °FPassing clouds.7 mph69%29.95 "HgN/A
10:00 PM79 °FPassing clouds.5 mph65%29.92 "HgN/A
9:00 PM79 °FClear.7 mph65%29.92 "Hg10 mi
8:00 PM81 °FPassing clouds.7 mph62%29.92 "HgN/A
7:00 PM82 °FPartly cloudy.14 mph51%29.92 "HgN/A
6:00 PM84 °FPartly cloudy.12 mph37%29.92 "HgN/A
5:00 PM86 °FLight rain. Broken clouds.16 mph33%29.92 "Hg4 mi
4:00 PM86 °FBroken clouds.10 mph31%29.92 "HgN/A
3:00 PM84 °FLight rain. Broken clouds.9 mph35%29.92 "HgN/A
Weather by CustomWeather, © 2014

See weather overviewHow to use our weather pages